Location: Austin
(30.3000°N, 97.7500°W)
Time: 22:00:19
(UTC-06:00)

SL-16 R/B - Pass Details

Date: 03 December 2025
Orbit: 985 x 1006 km, 99.8° (Epoch: 07 December)

Event Time Altitude Azimuth Distance (km) Brightness Sun altitude
Rises 05:47:38 0° 212° (SSW) 3,712 5.4 -17.8°
Reaches altitude 10° 05:51:34 10° 237° (WSW) 2,770 4.5 -17.0°
Enters shadow 05:51:41 10° 238° (WSW) 2,750 4.5 -17.0°
